Time,TemperatureF,DewpointF,PressureIn,WindDirection,WindDirectionDegrees,WindSpeedMPH,WindSpeedGustMPH,Humidity,HourlyPrecipIn,Conditions,Clouds,dailyrainin,SoftwareType,DateUTC
2013-07-02 00:00:00,56.0,52.0,29.93,SSE,160,32.0,43.0,86,-99.99,,,-99.99,,2013-07-02 08:00:00,
2013-07-02 00:52:00,56.0,52.0,29.93,SSE,160,32.0,43.0,86,-99.99,,,-99.99,,2013-07-02 08:52:00,
2013-07-02 02:00:00,57.0,52.0,29.94,South,170,29.0,44.0,83,-99.99,,,-99.99,,2013-07-02 10:00:00,
2013-07-02 02:52:00,57.0,52.0,29.94,South,170,29.0,44.0,83,-99.99,,,-99.99,,2013-07-02 10:52:00,
2013-07-02 03:00:00,56.0,51.0,29.95,SSE,160,30.0,45.0,83,-99.99,,,-99.99,,2013-07-02 11:00:00,
2013-07-02 03:52:00,56.0,51.0,29.95,SSE,160,30.0,45.0,83,-99.99,,,-99.99,,2013-07-02 11:52:00,
2013-07-02 04:00:00,55.0,52.0,29.95,South,170,27.0,37.0,89,-99.99,,,-99.99,,2013-07-02 12:00:00,
2013-07-02 04:52:00,55.0,52.0,29.95,South,170,27.0,37.0,89,-99.99,,,-99.99,,2013-07-02 12:52:00,
2013-07-02 06:00:00,56.0,50.0,29.97,SSE,160,31.0,44.0,80,-99.99,,,-99.99,,2013-07-02 14:00:00,
2013-07-02 06:53:00,56.0,50.0,29.97,SSE,160,31.0,44.0,80,-99.99,,,-99.99,,2013-07-02 14:53:00,
2013-07-02 08:00:00,56.0,50.0,29.99,South,170,31.0,41.0,80,-99.99,,,-99.99,,2013-07-02 16:00:00,
2013-07-02 08:52:00,56.0,50.0,29.99,South,170,31.0,41.0,80,-99.99,,,-99.99,,2013-07-02 16:52:00,
2013-07-02 09:00:00,55.0,51.0,30.01,South,170,27.0,44.0,86,-99.99,,,-99.99,,2013-07-02 17:00:00,
2013-07-02 09:53:00,55.0,51.0,30.01,South,170,27.0,44.0,86,-99.99,,,-99.99,,2013-07-02 17:53:00,
2013-07-02 11:00:00,55.0,50.0,30.02,SSE,160,31.0,41.0,83,-99.99,,,-99.99,,2013-07-02 19:00:00,
2013-07-02 11:53:00,55.0,50.0,30.02,SSE,160,31.0,41.0,83,-99.99,,,-99.99,,2013-07-02 19:53:00,
2013-07-02 16:00:00,55.0,47.0,30.07,SSE,150,28.0,44.0,74,-99.99,,,-99.99,,2013-07-03 00:00:00,
2013-07-02 16:52:00,55.0,47.0,30.07,SSE,150,28.0,44.0,74,-99.99,,,-99.99,,2013-07-03 00:52:00,
2013-07-02 17:00:00,56.0,49.0,30.06,SSE,160,28.0,41.0,77,-99.99,,,-99.99,,2013-07-03 01:00:00,
2013-07-02 17:52:00,56.0,49.0,30.06,SSE,160,28.0,41.0,77,-99.99,,,-99.99,,2013-07-03 01:52:00,
2013-07-02 18:00:00,56.0,49.0,30.05,South,170,32.0,46.0,77,-99.99,,,-99.99,,2013-07-03 02:00:00,
2013-07-02 18:52:00,56.0,49.0,30.05,South,170,32.0,46.0,77,-99.99,,,-99.99,,2013-07-03 02:52:00,
2013-07-02 19:00:00,55.0,50.0,30.05,South,170,31.0,44.0,83,-99.99,,,-99.99,,2013-07-03 03:00:00,
2013-07-02 19:52:00,55.0,50.0,30.05,South,170,31.0,44.0,83,-99.99,,,-99.99,,2013-07-03 03:52:00,
2013-07-02 20:00:00,55.0,49.0,30.06,SSE,160,30.0,43.0,79,-99.99,,,-99.99,,2013-07-03 04:00:00,
2013-07-02 20:52:00,55.0,49.0,30.06,SSE,160,30.0,43.0,79,-99.99,,,-99.99,,2013-07-03 04:52:00,
2013-07-02 21:52:00,55.0,50.0,30.05,South,170,31.0,45.0,83,-99.99,,,-99.99,,2013-07-03 05:52:00,